This is the latest recevied weather packets stored in our database for station/object SQ9CIE-4. If no packets are shown the sender has not sent any weather packets the latest 1 day(s).
| Time | Temp. | Humidity | Pressure | Rain* | Wind** | Luminosity | Snow |
|---|---|---|---|---|---|---|---|
| 1777953358 | 13.89° C | 43% | 1011.3 hPa | 0 mm | 0.45 m/s, 55° | 22 W/m² | - |
| 1777953058 | 13.89° C | 43% | 1011.3 hPa | 0 mm | 0.89 m/s, 55° | 17 W/m² | - |
| 1777952758 | 13.89° C | 43% | 1011.3 hPa | 0 mm | 1.34 m/s, 55° | 15 W/m² | - |
| 1777952458 | 13.89° C | 44% | 1011.4 hPa | 0 mm | 0.89 m/s, 55° | 13 W/m² | - |
| 1777952158 | 13.89° C | 45% | 1011.3 hPa | 0 mm | 1.79 m/s, 55° | 11 W/m² | - |
| 1777951858 | 13.89° C | 45% | 1011.4 hPa | 0 mm | 0.89 m/s, 55° | 9 W/m² | - |
| 1777951558 | 13.89° C | 45% | 1011.3 hPa | 0 mm | 1.34 m/s, 55° | 6 W/m² | - |
| 1777951258 | 13.89° C | 45% | 1011.3 hPa | 0 mm | 1.34 m/s, 55° | 4 W/m² | - |
| 1777950958 | 13.89° C | 44% | 1011.3 hPa | 0 mm | 1.79 m/s, 55° | 3 W/m² | - |
| 1777950658 | 13.89° C | 45% | 1011.5 hPa | 0 mm | 1.79 m/s, 55° | 2 W/m² | - |
| 1777950358 | 13.89° C | 45% | 1011.4 hPa | 0 mm | 0.89 m/s, 55° | 1 W/m² | - |
| 1777950058 | 12.78° C | 45% | 1011.6 hPa | 0 mm | 0.45 m/s, 55° | 1 W/m² | - |
| 1777949758 | 13.89° C | 45% | 1011.5 hPa | 0 mm | 1.79 m/s, 55° | 0 W/m² | - |
| 1777949458 | 13.89° C | 45% | 1011.5 hPa | 0 mm | 1.34 m/s, 55° | 0 W/m² | - |
| 1777949158 | 13.89° C | 45% | 1011.8 hPa | 0 mm | 0.45 m/s, 55° | 0 W/m² | - |
| 1777948858 | 13.89° C | 45% | 1011.8 hPa | 0 mm | 1.79 m/s, 55° | 0 W/m² | - |
| 1777948558 | 12.78° C | 45% | 1011.9 hPa | 0 mm | 1.34 m/s, 55° | 0 W/m² | - |
| 1777948258 | 12.78° C | 45% | 1011.9 hPa | 0 mm | 1.79 m/s, 55° | 0 W/m² | - |
| 1777947958 | 12.78° C | 45% | 1011.8 hPa | 0 mm | 1.79 m/s, 55° | 0 W/m² | - |
| 1777947658 | 12.78° C | 45% | 1012 hPa | 0 mm | 1.34 m/s, 55° | 0 W/m² | - |
| 1777947358 | 13.89° C | 45% | 1012 hPa | 0 mm | 1.79 m/s, 55° | 0 W/m² | - |
| 1777947058 | 13.89° C | 44% | 1011.8 hPa | 0 mm | 1.34 m/s, 55° | 0 W/m² | - |
| 1777946758 | 13.89° C | 45% | 1012 hPa | 0 mm | 0.89 m/s, 55° | 0 W/m² | - |
| 1777946458 | 12.78° C | 46% | 1012 hPa | 0 mm | 1.79 m/s, 55° | 0 W/m² | - |
| 1777946158 | 12.78° C | 46% | 1012 hPa | 0 mm | 1.79 m/s, 55° | 0 W/m² | - |
* Rain latest hour (hover to see other rain measurements)
** Current wind speed in m/s (hover to see current wind gust speed)